This is the latest recevied weather packets stored in our database for station/object N8JE-13. If no packets are shown the sender has not sent any weather packets the latest 1 day(s).
| Time | Temp. | Humidity | Pressure | Rain* | Wind** | Luminosity | Snow |
|---|---|---|---|---|---|---|---|
| 1778041551 | 8.89° C | 94% | 1007.3 hPa | 0 mm | - | - | - |
| 1778041251 | 8.89° C | 94% | 1007.1 hPa | 0 mm | - | - | - |
| 1778040951 | 8.89° C | 94% | 1007 hPa | 0 mm | - | - | - |
| 1778040651 | 8.89° C | 94% | 1006.9 hPa | 0 mm | - | - | - |
| 1778040050 | 9.44° C | 94% | 1006.8 hPa | 0 mm | - | - | - |
| 1778039750 | 9.44° C | 94% | 1006.6 hPa | 0.51 mm | - | - | - |
| 1778039451 | 9.44° C | 94% | 1006.7 hPa | 0.76 mm | - | - | - |
| 1778039151 | 9.44° C | 94% | 1006.7 hPa | 1.02 mm | - | - | - |
| 1778038552 | 9.44° C | 94% | 1006.7 hPa | 1.78 mm | - | - | - |
| 1778038252 | 9.44° C | 95% | 1006.7 hPa | 2.29 mm | - | - | - |
| 1778037952 | 9.44° C | 94% | 1006.6 hPa | 2.79 mm | - | - | - |
| 1778037652 | 9.44° C | 94% | 1006.8 hPa | 3.3 mm | - | - | - |
| 1778037352 | 9.44° C | 94% | 1006.8 hPa | 3.56 mm | - | - | - |
| 1778037052 | 9.44° C | 95% | 1006.7 hPa | 3.56 mm | - | - | - |
| 1778036452 | 9.44° C | 94% | 1007 hPa | 3.3 mm | - | - | - |
| 1778036152 | 9.44° C | 94% | 1007.2 hPa | 3.3 mm | - | - | - |
| 1778035852 | 9.44° C | 94% | 1007.5 hPa | 3.3 mm | - | - | - |
| 1778035552 | 9.44° C | 94% | 1007.5 hPa | 3.3 mm | - | - | - |
| 1778034952 | 9.44° C | 94% | 1007.5 hPa | 2.79 mm | - | - | - |
| 1778034652 | 9.44° C | 94% | 1007.4 hPa | 2.54 mm | - | - | - |
| 1778034352 | 9.44° C | 94% | 1007.5 hPa | 2.29 mm | - | - | - |
| 1778034052 | 10° C | 94% | 1007.5 hPa | 2.29 mm | - | - | - |
| 1778033751 | 10° C | 94% | 1007.5 hPa | 2.29 mm | - | - | - |
| 1778033151 | 10° C | 94% | 1007.3 hPa | 3.05 mm | - | - | - |
| 1778032852 | 10° C | 94% | 1007.2 hPa | 3.3 mm | - | - | - |
* Rain latest hour (hover to see other rain measurements)
** Current wind speed in m/s (hover to see current wind gust speed)